Location: Unnamed
(51.5169°N, 0.1311°W)
Time: 19:55:09
(UTC+01:00)

Tiros 1 - Pass Details

Date: 12 August 2024
Orbit: 623 x 655 km, 48.4° (Epoch: 16 September)

Event Time Altitude Azimuth Distance (km) Brightness Sun altitude
Rises 12:00:23 0° 276° (W) 2,976 10.4 51.0°
Reaches altitude 10° 12:03:52 10° 250° (WSW) 2,055 9.8 51.2°
Maximum altitude 12:06:07 13° 222° (SW) 1,830 9.9 51.3°
Drops below altitude 10° 12:08:22 10° 193° (SSW) 2,041 10.4 51.5°
Sets 12:11:49 0° 167° (SSE) 2,939 11.1 51.7°
